Location: Passau
(48.5830°N, 13.4830°E)
Time: 21:19:37
(UTC+02:00)

Vanguard 3 - Pass Details

Date: 18 May 2024
Orbit: 509 x 3231 km, 33.3° (Epoch: 16 June)

Event Time Altitude Azimuth Distance (km) Brightness Sun altitude
Rises 01:33:52 0° 269° (W) 6,205 11.6 -21.4°
Reaches altitude 10° 01:38:00 10° 262° (W) 5,491 11.2 -21.3°
Maximum altitude 01:53:19 38° 203° (SSW) 4,216 10.2 -20.9°
Drops below altitude 10° 02:09:58 10° 144° (SE) 5,916 11.2 -20.2°
Sets 02:14:41 0° 137° (SE) 6,710 11.5 -19.9°
